Location: Unspecified
(0.0000°N, 0.0000°E)
Time: 13:27:16
(UTC+00:00)

LightSail 2 - Pass Details

Date: 15 August 2019
Orbit: 701 x 732 km, 24.0° (Epoch: 21 August)

Event Time Altitude Azimuth Distance (km) Brightness Sun altitude
Rises 18:39:20 0° 248° (WSW) 3,087 9.4 -8.4°
Reaches altitude 10° 18:41:47 10° 250° (WSW) 2,163 8.6 -9.0°
Maximum altitude 18:46:52 72° 334° (NNW) 735 5.4 -10.3°
Drops below altitude 10° 18:51:56 10° 58° (ENE) 2,148 7.2 -11.5°
Enters shadow 18:52:50 - 59° (ENE) 2,487 7.5 -11.7°
